Погода в Юйлине

Китай     22°37′22″N   110°09′13″E
темп.,
°C
ветер,
м/с
пор.,
м/с
влажн.,
%
обл.,
%
осадки,
мм/ч
давл.,
гПа
погр.,
м
4 марта, чт
чт423:00+16ссв3469100 0.0 1021329
02:00+15св2379100 0.9 1019303
05:00+14ссв3490100 1.7 1018290
08:00+15св2490100 2.6 1018258
11:00+16ссв2389100 0.8 1019210
14:00+17св1192100 2.1 1016143
17:00+20ююв268589 0.3 1015484
20:00+20юв289390 0.3 1015381
5 марта, пт
пт523:00+20ююв2109287 0.0 1017457
02:00+19юв249485 0.0 1015197
05:00+19ююв299394 0.1 1014505
08:00+20юв1109397 1.6 1015577
11:00+24ююв697492 0.2 1016988
14:00+25ююв6107196 0.7 10131068
17:00+26ююв7106992 0.4 1011960
20:00+23ююв5118363 0.5 1013596
6 марта, сб
сб623:00+21ююв4129123 0.0 1014597
02:00+21ююв399336 1.0 1013475
05:00+21ююв2793100 1.4 1013393
08:00+22юв389299 1.6 1015440
11:00+24ююв368392 0.1 1016548
14:00+24ююв248396 0.5 1013425
17:00+27ююв236742 5.6 1012557
20:00+24юв118121 10.6 101424
7 марта, вс
вс723:00+22с12900 5.2 101640
02:00+20св48892 6.2 1016300
05:00+18св588869 4.4 1017402
08:00+17ссв6108482 5.2 1018461
11:00+18ссв597999 0.8 1020501
14:00+19ссв5877100 2.4 1018518
17:00+19ссв587896 1.2 1017448
20:00+18св478298 1.8 1018323
8 марта, пн
пн823:00+17св368731 0.0 1021190
02:00+17св358757 0.0 1019217
05:00+17св3588100 0.6 1018270
08:00+17всв2487100 0.6 1020211
11:00+20всв237689 0.1 1021517
14:00+23ююв236993 0.4 1018848
17:00+23юз1273100 0.1 1017561
20:00+21вюв118098 0.4 101827